Regional Weather Roundup
Issued by NWS

Home | Current Version | Previous Version | Graphics & Text | Print | Product List | Glossary On
Versions: 1 2 3 4 5 6 7 8 9 10 11 12 13 14 15 16 17 18 19 20 21 22 23 24 25 26 27 28 29 30 31 32 33 34 35 36 37 38 39 40 41 42 43 44 45 46 47 48 49 50
000
ASUS43 KTOP 260559
RWRKS

WEATHER ROUNDUP FOR KANSAS
NATIONAL WEATHER SERVICE GOODLAND KS
1200 AM CST SUN FEB 26 2017

NOTE:  "FAIR" INDICATES FEW OR NO CLOUDS BELOW 12,000 FEET WITH NO
SIGNIFICANT WEATHER AND/OR OBSTRUCTIONS TO VISIBILITY.

KSZ001>006-013>018-027>032-041>047-260700-
NORTHWEST KANSAS

CITY           SKY/WX    TMP DP  RH WIND       PRES   REMARKS
GOODLAND       CLEAR     13   7  77 CALM      29.85F
6HR MIN TEMP:  13; 6HR MAX TEMP:  36;

HAYS           MOCLDY    34  13  41 VRB5      29.93S
HILL CITY      CLOUDY    28  15  58 CALM      29.93R
6HR MIN TEMP:  25; 6HR MAX TEMP:  43;

RUSSELL        CLOUDY    33  15  47 SW9       29.92S
6HR MIN TEMP:  30; 6HR MAX TEMP:  45;

$$

KSZ061>065-074>080-084>089-260700-
SOUTHWEST KANSAS

CITY           SKY/WX    TMP DP  RH WIND       PRES   REMARKS
DODGE CITY     CLOUDY    35  14  42 SE13      29.87F WCI  26
6HR MIN TEMP:  30; 6HR MAX TEMP:  45;

GARDEN CITY    PTCLDY    33  14  45 S7        29.85R
6HR MIN TEMP:  31; 6HR MAX TEMP:  47;

GREAT BEND     MOCLDY    30  18  60 SE9       29.92F
LIBERAL        PTCLDY    36  14  41 S13       29.80F WCI  27
$$

KSZ066>073-081>083-090>101-260700-
SOUTHEAST KANSAS

CITY           SKY/WX    TMP DP  RH WIND       PRES   REMARKS
CHANUTE        CLEAR     28  14  55 SE6       30.05S
6HR MIN TEMP:  25; 6HR MAX TEMP:  41;

COFFEYVILLE    CLEAR     31  16  54 SE7       30.07F
6HR MIN TEMP:  31; 6HR MAX TEMP:  43;

HUTCHINSON     PTCLDY    32  19  58 SE7       29.97R
6HR MIN TEMP:  30; 6HR MAX TEMP:  42;

MEDICINE LODGE   N/A     31  17  56 S7        29.95F
NEWTON         CLOUDY    34  18  52 S15       29.97F WCI  24
PARSONS        CLEAR     32  15  49 SE3       30.06F
6HR MIN TEMP:  25; 6HR MAX TEMP:  43;

WICHITA INTL   PTCLDY    30  20  66 SE8       29.98F
6HR MIN TEMP:  30; 6HR MAX TEMP:  41;

WICHITA JABRA  CLOUDY    32  19  58 S9        29.98F
6HR MIN TEMP:  29; 6HR MAX TEMP:  40;

WINFIELD       MOCLDY    33  18  53 SE6       30.01F
6HR MIN TEMP:  32; 6HR MAX TEMP:  41;

$$

KSZ007>012-019>026-033>040-048>060-102>105-260700-
NORTHEAST KANSAS

CITY           SKY/WX    TMP DP  RH WIND       PRES   REMARKS
CONCORDIA      PTCLDY    34  15  46 SW13      29.94R WCI  25
6HR MIN TEMP:  33; 6HR MAX TEMP:  41;

EMPORIA        CLEAR     30  16  56 S14       29.98F WCI  19
6HR MIN TEMP:  28; 6HR MAX TEMP:  39;

LAWRENCE       CLEAR     27  14  58 E6        30.00F
6HR MIN TEMP:  26; 6HR MAX TEMP:  41;

MANHATTAN      CLEAR     33  18  53 SW9       29.96S
6HR MIN TEMP:  33; 6HR MAX TEMP:  43;

OLATHE IND     CLEAR     29  13  51 S9        30.01F
6HR MIN TEMP:  28; 6HR MAX TEMP:  39;

OLATHE EXE     CLEAR     31  13  47 S7        30.00F
6HR MIN TEMP:  30; 6HR MAX TEMP:  38;

SALINA         CLEAR     36  17  46 S14       29.96R WCI  27
6HR MIN TEMP:  33; 6HR MAX TEMP:  45;

TOPEKA BILLARD CLEAR     33  16  49 VRB6      29.98F
6HR MIN TEMP:  33; 6HR MAX TEMP:  42;

TOPEKA FORBES  CLEAR     31  15  52 S7        29.97F
6HR MIN TEMP:  31; 6HR MAX TEMP:  40;

$$




USA.gov is the U.S. government's official web portal to all federal, state and local government web resources and services.